Location: Unspecified
(0.0000°N, 0.0000°E)
Time: 18:28:51
(UTC+00:00)

Vanguard 1 - Pass Details

Date: 18 April 2026
Orbit: 654 x 3817 km, 34.2° (Epoch: 18 May)

Event Time Altitude Azimuth Distance (km) Brightness Sun altitude
Rises 22:57:49 0° 276° (W) 7,165 14.7 -71.1°
Reaches altitude 10° 23:03:50 10° 287° (WNW) 6,501 14.3 -72.3°
Maximum altitude 23:21:01 27° 338° (NNW) 5,582 13.8 -75.4°
Drops below altitude 10° 23:38:09 10° 29° (NNE) 6,377 14.2 -77.7°
Sets 23:44:08 0° 41° (NE) 7,000 14.5 -78.3°
